Temp_Advection
nan nan nan nan nan nan nan nan nan nan nan nan nan nan nan nan nan nan nan nan nan nan nan nan nan nan nan nan nan nan nan nan nan nan nan nan nan nan nan nan nan nan nan
nan -1 -0 0 0 0 0 0 0 0 0 0 0 0 0 0 0 -0 0 -0 0 0 0 0 -0 0 0 -0 -0 0 0 0 0 0 -0 -0 -0 -0 -0 -0 -0 -0 nan
nan -1 -1 -1 -1 0 0 0 0 0 0 0 0 0 0 0 -0 -0 -0 -0 -0 0 0 0 0 0 -0 -0 -0 0 0 0 0 0 -0 -0 -0 -0 -0 -0 -0 -0 nan
nan -0 -1 -1 -1 -1 -1 -0 -0 0 0 0 -0 -0 0 0 0 0 -0 -0 -1 -0 0 -0 -0 0 -0 -0 0 0 -0 -0 0 0 -0 0 -0 -0 -0 -0 -0 0 nan
nan 0 -0 -0 0 -1 -0 -0 -0 -0 -0 -0 -0 0 0 0 0 -0 -0 -0 -0 -0 -0 -0 -0 -0 -0 -0 -0 -0 0 -0 -0 -0 -0 -0 -0 0 0 -0 -0 0 nan
nan 0 0 0 0 -0 -0 -0 -0 -1 -0 -0 0 0 0 0 0 -0 -0 -0 -0 -0 -0 0 0 -0 -0 0 0 -0 -0 -0 -0 -0 -0 0 0 0 0 0 0 -0 nan
nan 0 0 0 0 -0 -0 -0 -0 -0 -0 0 -0 -0 0 0 0 -0 -0 -0 -0 -0 -0 -0 -0 -0 -0 -0 0 -0 -0 -0 -0 -0 -0 -0 -0 -0 0 -0 -0 -0 nan
nan 0 0 0 0 0 0 0 0 -0 0 0 -0 -0 -0 0 0 0 -0 -0 -0 -0 -0 -0 0 0 -0 -0 -0 -0 -0 -0 -0 -0 -0 -0 -0 -0 -0 -0 -0 0 nan
nan 0 0 0 0 0 -0 0 0 0 -0 -0 -0 -0 -0 0 0 0 0 -0 -0 0 -0 -0 0 0 -0 -0 -0 -0 -0 -0 0 0 0 0 -0 -0 -0 -0 -0 -0 nan
nan 0 0 0 0 -0 -0 0 0 0 -0 -0 -0 -0 0 0 0 0 0 0 0 0 0 0 0 0 0 -0 -0 -0 -0 -0 0 0 0 0 -0 -0 -0 0 0 -0 nan
nan 0 0 0 0 0 0 0 -0 0 0 -0 -0 0 0 0 0 0 0 0 0 0 0 0 -0 0 0 0 -0 -0 0 0 0 0 0 0 0 0 0 0 0 -0 nan
nan -0 0 0 0 0 0 0 -0 0 0 -0 0 0 0 0 0 0 0 0 0 0 0 -0 0 0 0 0 0 0 0 -0 0 0 0 -0 0 0 0 -0 -0 -0 nan
nan -0 -0 0 0 0 0 0 0 0 0 0 0 -0 0 0 0 -0 -0 -0 0 -0 -0 0 0 0 0 0 -0 -0 0 0 0 0 0 0 0 -0 0 -0 -0 -0 nan
nan 0 0 0 0 0 0 0 0 0 0 0 0 0 0 -0 -0 -0 -0 0 0 0 0 0 0 0 0 0 -0 -0 0 0 0 0 0 0 0 0 -0 0 0 -0 nan
nan 0 0 0 0 0 0 0 0 0 -0 0 0 1 0 0 0 0 0 0 0 0 0 0 0 0 0 -0 -0 -0 -0 0 0 0 0 0 0 0 0 0 -0 -0 nan
nan -0 0 0 0 0 0 0 0 0 -0 0 0 1 0 0 0 0 0 0 0 0 0 0 0 0 0 -0 -0 -0 0 0 0 0 0 0 0 0 0 0 0 -0 nan
nan 0 0 0 0 0 0 0 0 0 0 0 0 0 0 0 0 0 0 0 0 0 0 0 0 0 0 -0 -0 -0 0 0 0 0 0 0 0 0 0 0 0 0 nan
nan 0 0 0 0 -0 -0 0 0 0 0 0 0 0 0 0 0 0 1 1 0 0 0 0 0 0 0 -0 -0 -0 0 0 0 0 0 0 0 0 0 0 -0 -0 nan
nan 0 0 0 -0 -0 0 0 0 0 0 0 0 0 0 0 0 1 1 0 0 0 0 0 0 0 0 -0 -0 0 0 0 0 0 0 0 0 0 0 0 -0 -0 nan
nan 0 0 -0 -1 -0 0 1 0 0 0 0 0 0 0 0 0 1 0 0 0 0 0 -0 -0 0 0 -0 -0 0 0 0 0 0 0 0 0 0 0 -0 -0 -0 nan
nan -0 -0 0 0 0 0 0 0 -0 -0 -0 0 0 1 0 0 -0 0 -0 0 0 0 -0 0 0 0 0 0 0 0 0 0 0 0 0 0 0 0 -0 0 0 nan
nan 0 -0 -0 0 0 -0 -0 -0 -0 1 1 1 0 0 0 0 0 -0 0 1 0 -0 -0 0 0 0 0 0 0 0 0 0 0 0 0 0 0 0 0 0 0 nan
nan -0 -0 -0 0 0 0 -0 0 0 0 0 0 -0 0 1 1 1 -0 1 1 -0 -0 -0 0 0 0 0 0 0 -0 -0 0 0 0 0 0 0 0 0 0 0 nan
nan -0 -0 0 0 0 0 0 -1 -0 0 0 0 0 0 1 1 1 0 0 0 0 -0 0 0 0 0 0 0 -0 -0 0 0 0 0 0 0 0 0 0 0 0 nan
nan 0 -0 -0 0 0 0 -0 0 0 0 0 -0 0 0 1 1 1 0 0 1 1 0 0 0 1 0 0 0 0 0 0 0 0 0 0 0 1 1 0 0 0 nan
nan nan nan nan nan nan nan nan nan nan nan nan nan nan nan nan nan nan nan nan nan nan nan nan nan nan nan nan nan nan nan nan nan nan nan nan nan nan nan nan nan nan nan
Wind_Speed
18 19 19 19 18 16 15 14 13 13 12 11 11 11 10 8 8 8 8 6 3 2 6 7 11 12 13 8 3 3 2 3 3 4 5 5 4 3 2 5 7 6 6
17 20 19 19 17 15 16 14 12 11 10 11 11 12 11 9 7 6 6 5 8 14 10 11 13 12 11 7 5 4 2 1 2 1 0 2 3 5 6 7 8 10 7
20 19 20 19 18 16 15 14 13 11 10 9 7 8 7 5 3 4 6 9 13 14 13 16 13 15 7 3 2 2 2 4 4 5 4 6 7 10 9 9 10 6 7
17 18 19 17 16 17 17 14 14 13 11 9 8 6 7 4 6 7 8 9 13 14 16 15 12 7 4 0 0 4 6 7 6 6 7 7 9 12 11 11 10 9 9
16 15 17 16 15 15 15 13 13 14 13 11 8 8 6 6 8 9 9 10 11 14 12 9 8 6 3 3 5 7 6 6 6 7 7 10 11 11 9 8 6 7 7
19 17 16 17 16 15 14 13 12 13 14 11 10 8 6 7 8 10 11 12 13 12 10 8 7 8 8 7 7 6 5 5 6 6 8 8 7 6 4 4 4 7 5
18 18 17 17 16 15 13 11 11 11 13 13 13 9 6 8 9 10 10 11 12 12 11 11 10 9 8 6 5 3 3 3 4 3 5 5 5 4 6 3 3 4 2
16 18 18 17 16 14 13 11 11 12 14 14 14 9 7 9 9 10 10 10 11 11 11 11 10 8 6 4 2 2 2 1 2 2 2 3 3 6 6 4 0 2 0
17 18 18 17 16 14 13 11 12 11 15 15 13 10 11 11 10 10 9 9 9 10 10 9 7 5 4 2 2 2 3 2 1 2 2 2 4 6 5 2 2 4 5
15 17 17 17 16 15 13 12 12 13 14 15 14 14 13 11 10 9 9 9 8 9 8 7 5 4 3 2 1 2 1 1 0 1 2 3 4 4 1 2 3 4 6
17 17 18 18 16 15 14 13 14 14 14 15 16 16 14 12 10 9 9 8 8 8 7 6 4 3 3 1 0 1 1 2 2 3 4 3 2 4 4 5 5 7 7
21 20 20 19 18 16 16 16 15 15 15 15 17 17 15 13 12 11 10 9 8 8 7 6 5 4 3 2 3 4 4 4 5 5 5 2 3 5 6 2 3 3 3
19 19 20 20 19 19 18 18 18 17 16 17 17 18 16 15 13 14 14 12 10 10 8 7 6 5 4 4 5 5 6 6 6 4 3 3 6 7 6 2 2 3 3
19 18 19 20 20 19 18 20 20 19 17 18 19 20 19 18 16 15 14 13 12 11 10 9 8 7 6 6 6 7 7 7 6 4 4 5 7 8 6 1 1 2 3
23 22 21 21 21 20 20 21 22 22 20 19 20 22 22 21 19 17 16 16 14 13 11 10 9 8 7 7 8 8 9 7 5 4 4 5 6 6 4 2 2 3 3
26 26 22 23 23 21 22 22 23 23 22 21 22 23 24 23 21 19 18 17 16 14 13 12 11 9 9 9 9 9 8 7 6 4 4 4 5 5 4 4 3 3 4
30 30 29 28 27 24 24 23 24 23 22 23 24 24 24 25 24 22 20 19 17 15 15 14 12 11 10 11 10 10 8 7 6 5 5 4 4 4 4 4 4 5 5
23 30 31 30 31 29 29 28 26 26 25 26 23 24 25 25 24 23 23 21 19 18 17 15 13 12 12 12 12 10 9 8 7 6 6 6 5 5 5 6 5 5 7
29 27 27 29 30 29 33 34 30 29 29 27 27 26 25 26 26 25 23 21 21 20 18 16 13 12 13 14 13 12 10 10 9 8 8 7 7 6 7 7 7 7 7
29 32 33 31 31 29 27 27 36 35 33 33 31 30 28 26 27 26 25 22 22 21 21 18 16 16 15 15 14 13 12 11 11 10 10 9 8 8 8 9 8 9 9
25 25 33 37 38 35 34 33 31 37 40 36 34 32 32 29 29 29 30 26 23 22 19 19 20 19 17 16 15 14 13 13 12 12 12 12 11 11 11 11 11 12 12
30 28 26 28 32 37 39 37 36 35 36 41 38 34 33 34 31 32 32 29 28 24 22 21 23 20 18 18 18 14 9 14 15 15 15 14 14 13 14 14 14 15 16
31 33 31 28 24 22 32 35 36 39 40 41 44 41 37 35 35 34 35 32 33 29 26 23 25 21 19 21 21 16 8 10 13 18 18 16 15 15 16 16 17 18 20
12 19 32 34 31 28 25 29 36 39 40 39 42 42 42 38 36 36 38 37 35 34 32 29 26 25 25 24 23 25 23 12 9 9 18 18 17 18 18 19 20 21 23
9 9 13 23 32 30 28 29 27 30 34 38 39 43 47 43 40 38 39 38 38 39 37 33 31 31 31 28 27 26 26 24 20 16 12 16 18 19 19 21 22 23 25
11 9 10 12 18 24 25 25 25 26 28 31 34 38 41 47 46 45 41 41 40 41 41 37 34 35 34 32 29 28 28 26 24 20 19 15 15 16 19 21 23 24 24
Wind_Direction
178 172 171 171 170 165 163 167 170 178 180 190 199 205 212 223 236 251 261 264 262 101 103 130 127 121 118 116 102 137 165 211 237 250 271 297 318 337 41 53 52 40 79
181 173 168 174 170 166 168 173 173 181 192 202 206 209 211 220 231 244 234 201 146 115 108 128 130 133 122 110 89 130 118 152 193 232 351 56 64 68 65 73 71 68 82
177 173 167 169 169 167 166 173 171 177 186 196 200 171 172 181 192 148 141 144 144 130 117 120 131 140 120 115 88 103 134 127 118 106 103 93 73 67 67 62 56 69 63
178 175 167 169 167 166 172 174 175 179 195 209 183 188 131 122 120 117 125 136 140 141 148 139 140 139 149 185 332 116 123 120 113 104 97 97 76 68 66 62 62 63 65
182 180 171 169 172 173 176 183 189 185 193 197 199 161 135 114 115 112 115 122 137 132 139 142 146 161 181 130 125 122 117 103 91 91 87 83 65 49 56 44 45 52 49
176 179 179 175 177 177 177 183 191 196 190 187 173 169 142 130 124 120 117 119 133 141 145 147 145 138 133 126 135 130 119 92 80 86 72 87 75 48 22 47 53 51 50
180 179 182 180 182 179 182 184 188 188 179 170 189 181 160 144 134 127 122 121 125 130 130 127 123 121 122 123 128 126 132 86 82 66 68 70 61 354 12 12 31 42 18
185 185 184 183 186 186 188 187 183 182 174 176 189 185 176 157 144 136 132 130 131 133 133 130 129 131 136 140 139 134 134 95 104 44 28 15 3 347 0 12 60 232 168
187 192 190 189 193 194 196 195 185 192 178 181 194 196 179 168 157 148 143 140 140 142 140 138 137 141 142 140 113 93 94 102 23 3 350 348 336 350 16 13 325 297 272
193 198 199 197 200 201 201 203 198 201 190 191 194 190 182 179 172 167 161 156 155 155 150 150 150 150 134 119 104 101 90 110 360 318 311 324 343 13 68 269 267 280 299
195 201 206 209 207 209 211 210 211 209 199 196 191 189 191 193 192 191 179 176 172 171 172 165 181 168 156 160 331 344 305 295 297 293 297 313 297 254 253 254 267 274 289
200 202 208 209 212 215 221 222 222 218 213 208 202 200 201 204 207 206 199 197 192 192 188 196 205 206 213 256 284 298 299 302 308 299 294 327 196 240 248 107 228 272 304
214 213 214 214 218 223 228 228 229 229 223 220 213 210 210 210 210 205 206 208 207 210 212 217 221 227 241 261 283 294 299 305 307 295 266 183 244 259 266 155 247 284 345
228 230 231 226 229 230 235 233 232 233 231 230 225 220 217 217 215 211 212 218 220 219 223 227 228 235 250 273 286 290 297 300 295 280 257 249 256 270 293 284 292 327 341
237 237 236 236 238 235 240 237 233 234 235 237 235 230 225 224 223 221 221 223 225 227 229 234 232 243 259 272 284 292 299 298 289 270 253 252 264 274 268 273 301 320 320
246 249 247 243 245 245 246 245 242 240 239 240 239 236 233 229 229 229 226 226 226 229 232 231 235 247 267 280 284 289 290 286 275 263 251 249 252 256 262 268 284 294 307
245 251 252 249 247 248 250 251 247 245 242 242 242 240 239 236 235 233 231 228 229 233 229 229 238 247 266 279 277 277 277 270 259 252 246 241 241 244 249 258 268 285 293
248 245 246 245 248 249 250 252 252 250 245 245 242 238 239 240 238 234 229 230 230 233 227 230 241 249 267 277 271 268 266 260 258 246 239 235 238 235 241 250 261 277 286
249 243 241 243 244 250 250 248 250 252 251 253 247 241 239 240 236 230 228 229 230 232 228 231 247 259 267 271 266 263 255 253 249 242 227 233 234 233 240 245 271 284 288
252 244 241 241 243 247 251 250 246 247 249 249 250 247 243 239 235 231 227 225 225 226 225 230 243 256 260 263 257 253 251 248 245 232 224 229 235 239 246 264 273 285 286
261 254 245 243 244 242 241 244 244 243 245 246 247 250 248 242 236 233 231 220 223 227 229 234 240 249 250 254 245 242 241 243 239 227 228 231 235 244 258 268 277 284 289
262 257 253 248 251 246 245 245 247 248 246 248 248 250 250 246 241 238 237 235 220 223 227 232 241 243 245 250 239 235 232 237 234 230 231 237 241 249 261 267 275 284 292
266 257 253 251 252 248 245 243 246 244 244 243 242 244 246 248 245 240 241 238 228 224 230 230 233 238 243 253 238 227 211 220 222 231 232 240 246 253 259 265 274 283 293
298 270 250 244 246 250 249 245 243 247 247 247 245 244 246 246 249 244 241 243 237 230 232 232 233 234 233 244 235 234 233 233 207 218 233 238 243 250 256 263 272 282 293
298 281 271 254 242 245 249 251 249 249 254 255 252 245 246 247 245 246 245 245 245 239 239 237 235 233 235 238 238 236 234 234 233 228 227 234 238 245 254 261 271 280 289
343 319 295 269 255 250 248 246 246 248 250 254 253 251 248 248 246 244 242 244 245 243 242 241 237 236 236 239 238 237 239 235 232 228 231 237 242 248 253 262 270 276 283
Height
1512 1516 1518 1522 1524 1527 1530 1532 1533 1535 1535 1536 1538 1538 1539 1540 1540 1540 1541 1541 1541 1542 1542 1543 1544 1545 1546 1548 1548 1549 1550 1551 1552 1553 1552 1552 1552 1552 1551 1551 1550 1550 1550
1513 1515 1518 1521 1524 1526 1529 1532 1534 1535 1536 1537 1538 1538 1539 1540 1540 1540 1539 1540 1541 1543 1543 1544 1545 1547 1547 1548 1548 1549 1550 1551 1551 1552 1552 1553 1553 1552 1552 1552 1551 1551 1552
1512 1515 1518 1521 1524 1527 1530 1532 1534 1536 1537 1537 1538 1538 1538 1539 1539 1539 1538 1539 1541 1543 1544 1545 1546 1547 1548 1549 1549 1549 1550 1551 1551 1552 1553 1553 1553 1553 1553 1553 1552 1553 1553
1513 1516 1518 1521 1524 1527 1530 1532 1534 1536 1537 1538 1538 1538 1538 1539 1538 1539 1539 1540 1541 1543 1544 1546 1547 1549 1549 1549 1549 1550 1550 1552 1552 1553 1553 1553 1554 1553 1553 1553 1553 1553 1553
1514 1517 1519 1522 1524 1527 1530 1532 1534 1536 1537 1537 1538 1539 1539 1539 1539 1539 1540 1541 1542 1544 1546 1548 1548 1549 1550 1550 1550 1551 1552 1553 1554 1554 1554 1555 1554 1554 1554 1554 1554 1554 1554
1513 1517 1519 1522 1525 1527 1529 1531 1533 1535 1536 1537 1539 1539 1540 1540 1541 1542 1542 1543 1544 1545 1547 1548 1548 1549 1551 1550 1551 1553 1553 1554 1555 1555 1555 1555 1555 1556 1556 1555 1555 1555 1554
1513 1516 1519 1522 1526 1528 1530 1531 1533 1534 1535 1537 1539 1540 1541 1542 1543 1543 1544 1545 1546 1547 1548 1549 1549 1551 1552 1552 1553 1554 1554 1555 1556 1556 1556 1556 1555 1555 1555 1555 1555 1555 1555
1514 1516 1519 1522 1526 1528 1530 1531 1533 1534 1535 1537 1539 1540 1542 1543 1544 1545 1545 1547 1547 1548 1549 1550 1550 1551 1552 1553 1554 1554 1554 1555 1556 1556 1556 1556 1556 1555 1556 1554 1554 1554 1554
1514 1516 1519 1522 1525 1528 1530 1531 1532 1535 1536 1537 1539 1540 1542 1544 1545 1546 1546 1548 1549 1549 1550 1551 1551 1552 1553 1553 1554 1555 1555 1555 1556 1556 1555 1556 1556 1554 1556 1556 1553 1553 1553
1515 1517 1520 1522 1524 1527 1529 1531 1532 1534 1535 1537 1539 1541 1542 1544 1545 1546 1547 1548 1549 1550 1551 1551 1552 1553 1553 1554 1554 1554 1555 1555 1556 1556 1555 1555 1556 1555 1554 1555 1553 1552 1552
1515 1517 1519 1521 1524 1526 1528 1530 1531 1533 1535 1536 1538 1540 1542 1544 1545 1547 1548 1549 1550 1550 1551 1551 1552 1553 1553 1554 1555 1555 1555 1556 1555 1555 1554 1554 1555 1554 1553 1554 1551 1552 1550
1513 1515 1518 1520 1523 1525 1527 1529 1530 1532 1533 1535 1537 1539 1541 1543 1545 1546 1547 1548 1549 1550 1551 1552 1552 1553 1554 1554 1554 1555 1554 1555 1554 1554 1554 1554 1554 1553 1552 1552 1551 1550 1549
1512 1515 1517 1519 1521 1523 1524 1527 1529 1531 1532 1534 1536 1538 1540 1541 1543 1545 1546 1548 1549 1549 1551 1552 1552 1553 1553 1554 1554 1554 1554 1553 1553 1553 1553 1553 1553 1552 1551 1551 1550 1550 1550
1511 1513 1516 1518 1519 1520 1522 1524 1527 1528 1530 1532 1534 1536 1537 1539 1541 1543 1545 1546 1547 1548 1549 1550 1551 1552 1553 1553 1553 1554 1553 1552 1551 1551 1552 1551 1551 1551 1551 1550 1550 1549 1550
1510 1512 1513 1515 1517 1518 1520 1521 1524 1525 1527 1530 1532 1533 1535 1537 1539 1541 1542 1544 1546 1547 1548 1549 1550 1551 1551 1551 1551 1551 1552 1550 1550 1550 1550 1551 1550 1550 1550 1550 1549 1549 1549
1507 1509 1511 1513 1514 1516 1517 1519 1521 1523 1525 1527 1528 1530 1532 1534 1536 1539 1540 1541 1543 1545 1546 1548 1549 1549 1551 1550 1550 1549 1549 1549 1549 1548 1550 1549 1549 1549 1549 1549 1549 1548 1548
1503 1505 1508 1510 1512 1513 1514 1516 1518 1520 1522 1523 1524 1527 1529 1531 1534 1535 1537 1538 1541 1542 1544 1546 1547 1547 1548 1548 1548 1547 1547 1548 1547 1547 1548 1548 1548 1549 1548 1548 1547 1547 1547
1500 1500 1503 1505 1507 1509 1510 1512 1514 1516 1517 1518 1520 1523 1525 1526 1529 1532 1534 1535 1538 1538 1540 1544 1545 1545 1545 1546 1546 1544 1544 1546 1545 1546 1546 1546 1547 1547 1547 1547 1546 1546 1545
1494 1496 1497 1499 1501 1503 1504 1505 1508 1511 1513 1515 1517 1518 1519 1522 1524 1526 1529 1532 1533 1535 1538 1541 1542 1542 1542 1543 1543 1543 1542 1542 1543 1543 1544 1545 1545 1545 1545 1545 1545 1544 1544
1486 1488 1490 1492 1494 1496 1497 1498 1501 1504 1507 1509 1511 1513 1514 1516 1520 1521 1525 1527 1528 1531 1533 1537 1538 1539 1539 1540 1540 1540 1541 1540 1540 1541 1542 1542 1543 1543 1543 1543 1543 1542 1542
1480 1480 1481 1483 1486 1487 1489 1490 1493 1494 1497 1501 1504 1508 1509 1511 1514 1516 1519 1522 1524 1526 1529 1531 1533 1535 1535 1536 1536 1537 1537 1538 1538 1538 1539 1540 1539 1540 1540 1540 1540 1540 1539
1472 1473 1474 1475 1477 1480 1481 1484 1484 1488 1489 1492 1497 1501 1503 1504 1507 1511 1513 1516 1518 1521 1523 1526 1528 1530 1531 1533 1533 1533 1534 1535 1534 1534 1535 1536 1536 1536 1536 1536 1536 1536 1535
1461 1464 1466 1469 1470 1472 1474 1478 1476 1479 1481 1483 1487 1492 1495 1497 1500 1504 1507 1509 1512 1514 1516 1518 1521 1524 1526 1527 1528 1530 1529 1528 1529 1530 1531 1532 1532 1532 1532 1532 1531 1531 1530
1455 1455 1456 1459 1462 1465 1468 1467 1469 1470 1472 1474 1478 1483 1486 1489 1493 1497 1500 1503 1505 1508 1510 1512 1515 1517 1519 1520 1522 1523 1524 1525 1524 1526 1527 1526 1527 1527 1528 1528 1527 1527 1526
1451 1450 1451 1452 1455 1458 1460 1461 1463 1464 1466 1467 1471 1475 1478 1481 1484 1489 1492 1495 1498 1499 1503 1506 1508 1510 1512 1513 1514 1516 1518 1519 1520 1520 1521 1522 1522 1522 1523 1524 1523 1522 1521
1449 1449 1449 1448 1450 1453 1454 1455 1456 1458 1460 1461 1463 1465 1469 1471 1475 1479 1483 1486 1489 1492 1494 1499 1501 1504 1506 1507 1508 1509 1511 1513 1514 1515 1516 1516 1518 1518 1518 1519 1518 1516 1515